Time,TemperatureF,DewpointF,PressureIn,WindDirection,WindDirectionDegrees,WindSpeedMPH,WindSpeedGustMPH,Humidity,HourlyPrecipIn,Conditions,Clouds,dailyrainin,SoftwareType,DateUTC
2013-09-23 00:10:00,63.3,62.4,29.80,NW,315,0.0,-999.0,97,-99.99,,,0.00,Acu-Link.com,2013-09-23 04:10:00,
2013-09-23 00:40:00,63.3,62.7,29.81,SSW,202,0.0,-999.0,98,-99.99,,,0.00,Acu-Link.com,2013-09-23 04:40:00,
2013-09-23 00:55:00,63.1,62.2,29.81,SSW,202,0.0,-999.0,97,-99.99,,,0.00,Acu-Link.com,2013-09-23 04:55:00,
2013-09-23 01:11:00,62.8,61.9,29.80,South,180,0.0,-999.0,97,-99.99,,,0.00,Acu-Link.com,2013-09-23 05:11:00,
2013-09-23 01:26:00,62.6,61.7,29.81,SSW,202,0.0,-999.0,97,-99.99,,,0.00,Acu-Link.com,2013-09-23 05:26:00,
2013-09-23 01:41:00,62.6,62.0,29.81,South,180,0.0,-999.0,98,-99.99,,,0.00,Acu-Link.com,2013-09-23 05:41:00,
2013-09-23 01:56:00,62.6,62.0,29.81,South,180,0.0,-999.0,98,-99.99,,,0.00,Acu-Link.com,2013-09-23 05:56:00,
2013-09-23 02:11:00,62.4,61.8,29.82,WNW,292,0.0,-999.0,98,-99.99,,,0.00,Acu-Link.com,2013-09-23 06:11:00,
2013-09-23 02:26:00,62.4,61.5,29.81,SSW,202,0.0,-999.0,97,-99.99,,,0.00,Acu-Link.com,2013-09-23 06:26:00,
2013-09-23 02:42:00,62.2,61.0,29.82,SSW,202,0.0,-999.0,96,-99.99,,,0.00,Acu-Link.com,2013-09-23 06:42:00,
2013-09-23 02:57:00,62.2,61.0,29.82,SSW,202,0.0,-999.0,96,-99.99,,,0.00,Acu-Link.com,2013-09-23 06:57:00,
2013-09-23 03:12:00,62.2,61.3,29.82,WNW,292,0.0,-999.0,97,-99.99,,,0.00,Acu-Link.com,2013-09-23 07:12:00,
2013-09-23 03:27:00,62.2,61.0,29.82,SSW,202,0.0,-999.0,96,-99.99,,,0.00,Acu-Link.com,2013-09-23 07:27:00,
2013-09-23 03:42:00,62.2,61.0,29.82,West,270,0.0,-999.0,96,-99.99,,,0.00,Acu-Link.com,2013-09-23 07:42:00,
2013-09-23 03:57:00,62.2,61.3,29.82,NW,315,0.0,-999.0,97,-99.99,,,0.00,Acu-Link.com,2013-09-23 07:57:00,
2013-09-23 04:13:00,62.2,61.3,29.82,NW,315,0.0,-999.0,97,-99.99,,,0.00,Acu-Link.com,2013-09-23 08:13:00,
2013-09-23 04:28:00,62.2,61.3,29.82,SW,225,0.0,-999.0,97,-99.99,,,0.00,Acu-Link.com,2013-09-23 08:28:00,
2013-09-23 04:43:00,62.2,61.3,29.82,West,270,0.0,-999.0,97,-99.99,,,0.00,Acu-Link.com,2013-09-23 08:43:00,
2013-09-23 04:58:00,62.2,60.7,29.83,West,270,0.0,-999.0,95,-99.99,,,0.00,Acu-Link.com,2013-09-23 08:58:00,
2013-09-23 05:14:00,62.1,60.4,29.83,South,180,0.0,-999.0,94,-99.99,,,0.00,Acu-Link.com,2013-09-23 09:14:00,
2013-09-23 05:29:00,62.1,60.0,29.84,ESE,112,0.0,-999.0,93,-99.99,,,0.00,Acu-Link.com,2013-09-23 09:29:00,
2013-09-23 05:44:00,62.1,59.4,29.84,SSW,202,0.0,-999.0,91,-99.99,,,0.00,Acu-Link.com,2013-09-23 09:44:00,
2013-09-23 05:59:00,61.7,59.7,29.85,SW,225,0.0,-999.0,93,-99.99,,,0.00,Acu-Link.com,2013-09-23 09:59:00,
2013-09-23 06:14:00,61.3,59.0,29.86,SSW,202,0.0,-999.0,92,-99.99,,,0.00,Acu-Link.com,2013-09-23 10:14:00,
2013-09-23 06:29:00,61.2,59.2,29.86,SSW,202,0.0,-999.0,93,-99.99,,,0.00,Acu-Link.com,2013-09-23 10:29:00,
2013-09-23 06:44:00,60.8,58.8,29.87,SSE,157,0.0,-999.0,93,-99.99,,,0.00,Acu-Link.com,2013-09-23 10:44:00,
2013-09-23 07:00:00,60.6,58.9,29.88,WNW,292,0.0,-999.0,94,-99.99,,,0.00,Acu-Link.com,2013-09-23 11:00:00,
2013-09-23 07:15:00,60.6,59.2,29.89,South,180,0.0,-999.0,95,-99.99,,,0.00,Acu-Link.com,2013-09-23 11:15:00,
2013-09-23 07:30:00,60.6,58.6,29.90,SSW,202,0.0,-999.0,93,-99.99,,,0.00,Acu-Link.com,2013-09-23 11:30:00,
2013-09-23 07:45:00,60.8,58.8,29.90,SSW,202,0.0,-999.0,93,-99.99,,,0.00,Acu-Link.com,2013-09-23 11:45:00,
2013-09-23 08:00:00,61.0,59.6,29.92,South,180,0.0,-999.0,95,-99.99,,,0.00,Acu-Link.com,2013-09-23 12:00:00,
2013-09-23 08:15:00,61.3,57.7,29.92,ENE,67,0.0,-999.0,88,-99.99,,,0.00,Acu-Link.com,2013-09-23 12:15:00,
2013-09-23 08:30:00,62.1,58.5,29.92,ESE,112,0.0,-999.0,88,-99.99,,,0.00,Acu-Link.com,2013-09-23 12:30:00,
2013-09-23 08:45:00,62.8,58.2,29.93,East,90,0.0,-999.0,85,-99.99,,,0.00,Acu-Link.com,2013-09-23 12:45:00,
2013-09-23 09:00:00,63.3,58.7,29.93,SSE,157,0.0,-999.0,85,-99.99,,,0.00,Acu-Link.com,2013-09-23 13:00:00,
2013-09-23 09:16:00,63.9,58.6,29.93,SSE,157,0.0,-999.0,83,-99.99,,,0.00,Acu-Link.com,2013-09-23 13:16:00,
2013-09-23 09:31:00,64.2,58.2,29.94,SSE,157,0.0,-999.0,81,-99.99,,,0.00,Acu-Link.com,2013-09-23 13:31:00,
2013-09-23 09:46:00,64.9,58.2,29.94,North,0,2.7,-999.0,79,-99.99,,,0.00,Acu-Link.com,2013-09-23 13:46:00,
2013-09-23 10:01:00,65.5,58.8,29.94,SE,135,2.2,-999.0,79,-99.99,,,0.00,Acu-Link.com,2013-09-23 14:01:00,
2013-09-23 10:16:00,66.2,58.8,29.94,North,0,0.0,-999.0,77,-99.99,,,0.00,Acu-Link.com,2013-09-23 14:16:00,
2013-09-23 10:31:00,66.7,58.9,29.94,SSE,157,1.7,-999.0,76,-99.99,,,0.00,Acu-Link.com,2013-09-23 14:31:00,
2013-09-23 10:46:00,67.5,58.9,29.94,SE,135,0.0,-999.0,74,-99.99,,,0.00,Acu-Link.com,2013-09-23 14:46:00,
2013-09-23 11:01:00,68.0,58.6,29.94,NW,315,1.7,-999.0,72,-99.99,,,0.00,Acu-Link.com,2013-09-23 15:01:00,
2013-09-23 11:16:00,69.3,60.6,29.94,WSW,247,0.0,-999.0,74,-99.99,,,0.00,Acu-Link.com,2013-09-23 15:16:00,
2013-09-23 11:32:00,70.5,61.0,29.95,East,90,2.7,-999.0,72,-99.99,,,0.00,Acu-Link.com,2013-09-23 15:32:00,
2013-09-23 11:47:00,71.1,60.4,29.94,NW,315,2.7,-999.0,69,-99.99,,,0.00,Acu-Link.com,2013-09-23 15:47:00,
2013-09-23 12:02:00,71.2,60.1,29.94,East,90,1.1,-999.0,68,-99.99,,,0.00,Acu-Link.com,2013-09-23 16:02:00,
2013-09-23 12:17:00,71.2,60.1,29.94,NNE,22,1.1,-999.0,68,-99.99,,,0.00,Acu-Link.com,2013-09-23 16:17:00,
2013-09-23 12:32:00,73.2,61.1,29.94,ESE,112,1.1,-999.0,66,-99.99,,,0.00,Acu-Link.com,2013-09-23 16:32:00,
2013-09-23 12:47:00,71.8,60.7,29.94,ESE,112,2.2,-999.0,68,-99.99,,,0.00,Acu-Link.com,2013-09-23 16:47:00,
2013-09-23 13:02:00,72.5,59.6,29.93,North,0,2.2,-999.0,64,-99.99,,,0.00,Acu-Link.com,2013-09-23 17:02:00,
2013-09-23 13:17:00,73.8,62.1,29.93,South,180,0.0,-999.0,67,-99.99,,,0.00,Acu-Link.com,2013-09-23 17:17:00,
2013-09-23 13:32:00,74.1,59.8,29.93,SW,225,2.7,-999.0,61,-99.99,,,0.00,Acu-Link.com,2013-09-23 17:32:00,
2013-09-23 13:47:00,76.1,60.7,29.92,East,90,3.7,-999.0,59,-99.99,,,0.00,Acu-Link.com,2013-09-23 17:47:00,
2013-09-23 14:03:00,76.8,60.9,29.92,South,180,0.0,-999.0,58,-99.99,,,0.00,Acu-Link.com,2013-09-23 18:03:00,
2013-09-23 14:18:00,78.4,61.9,29.92,South,180,1.7,-999.0,57,-99.99,,,0.00,Acu-Link.com,2013-09-23 18:18:00,
2013-09-23 14:33:00,76.3,63.2,29.92,SSW,202,0.0,-999.0,64,-99.99,,,0.00,Acu-Link.com,2013-09-23 18:33:00,
2013-09-23 14:48:00,76.8,62.8,29.92,SSE,157,0.0,-999.0,62,-99.99,,,0.00,Acu-Link.com,2013-09-23 18:48:00,
2013-09-23 15:03:00,77.0,61.1,29.91,SSE,157,0.0,-999.0,58,-99.99,,,0.00,Acu-Link.com,2013-09-23 19:03:00,
2013-09-23 15:18:00,77.5,60.0,29.91,ESE,112,2.2,-999.0,55,-99.99,,,0.00,Acu-Link.com,2013-09-23 19:18:00,
2013-09-23 15:33:00,77.7,61.2,29.90,South,180,0.0,-999.0,57,-99.99,,,0.00,Acu-Link.com,2013-09-23 19:33:00,
2013-09-23 15:48:00,77.0,62.0,29.89,West,270,1.7,-999.0,60,-99.99,,,0.00,Acu-Link.com,2013-09-23 19:48:00,
2013-09-23 16:03:00,76.3,60.9,29.90,ENE,67,1.7,-999.0,59,-99.99,,,0.00,Acu-Link.com,2013-09-23 20:03:00,
2013-09-23 16:19:00,76.8,62.8,29.90,West,270,0.0,-999.0,62,-99.99,,,0.00,Acu-Link.com,2013-09-23 20:19:00,
2013-09-23 16:34:00,75.9,63.3,29.90,WSW,247,0.0,-999.0,65,-99.99,,,0.00,Acu-Link.com,2013-09-23 20:34:00,
2013-09-23 16:49:00,74.1,62.0,29.89,WSW,247,0.0,-999.0,66,-99.99,,,0.00,Acu-Link.com,2013-09-23 20:49:00,
2013-09-23 17:04:00,73.9,60.9,29.89,WSW,247,0.0,-999.0,64,-99.99,,,0.00,Acu-Link.com,2013-09-23 21:04:00,
2013-09-23 17:19:00,74.5,61.9,29.89,South,180,0.0,-999.0,65,-99.99,,,0.00,Acu-Link.com,2013-09-23 21:19:00,
2013-09-23 17:34:00,74.7,60.3,29.90,East,90,0.0,-999.0,61,-99.99,,,0.00,Acu-Link.com,2013-09-23 21:34:00,
2013-09-23 17:49:00,73.9,60.5,29.90,SSW,202,0.0,-999.0,63,-99.99,,,0.00,Acu-Link.com,2013-09-23 21:49:00,
2013-09-23 18:04:00,73.2,61.6,29.90,SSW,202,0.0,-999.0,67,-99.99,,,0.00,Acu-Link.com,2013-09-23 22:04:00,
2013-09-23 18:19:00,71.8,61.1,29.90,SSW,202,0.0,-999.0,69,-99.99,,,0.00,Acu-Link.com,2013-09-23 22:19:00,
2013-09-23 18:35:00,70.2,61.5,29.90,SSW,202,0.0,-999.0,74,-99.99,,,0.00,Acu-Link.com,2013-09-23 22:35:00,
2013-09-23 18:50:00,69.4,62.2,29.90,SSW,202,0.0,-999.0,78,-99.99,,,0.00,Acu-Link.com,2013-09-23 22:50:00,
2013-09-23 19:05:00,68.7,62.6,29.90,SSW,202,0.0,-999.0,81,-99.99,,,0.00,Acu-Link.com,2013-09-23 23:05:00,
2013-09-23 19:20:00,67.8,63.5,29.90,SSW,202,0.0,-999.0,86,-99.99,,,0.00,Acu-Link.com,2013-09-23 23:20:00,
2013-09-23 19:35:00,67.1,63.4,29.90,SSW,202,0.0,-999.0,88,-99.99,,,0.00,Acu-Link.com,2013-09-23 23:35:00,
2013-09-23 19:50:00,66.6,63.3,29.91,SSW,202,0.0,-999.0,89,-99.99,,,0.00,Acu-Link.com,2013-09-23 23:50:00,
2013-09-23 20:05:00,65.8,62.8,29.90,SSW,202,0.0,-999.0,90,-99.99,,,0.00,Acu-Link.com,2013-09-24 00:05:00,
2013-09-23 20:20:00,65.1,62.7,29.91,SSW,202,0.0,-999.0,92,-99.99,,,0.00,Acu-Link.com,2013-09-24 00:20:00,
2013-09-23 20:35:00,64.2,61.8,29.91,SSW,202,0.0,-999.0,92,-99.99,,,0.00,Acu-Link.com,2013-09-24 00:35:00,
2013-09-23 20:51:00,63.7,62.2,29.91,SSW,202,0.0,-999.0,95,-99.99,,,0.00,Acu-Link.com,2013-09-24 00:51:00,
2013-09-23 21:06:00,63.5,62.0,29.91,South,180,0.0,-999.0,95,-99.99,,,0.00,Acu-Link.com,2013-09-24 01:06:00,
2013-09-23 21:21:00,63.1,61.6,29.91,SW,225,0.0,-999.0,95,-99.99,,,0.00,Acu-Link.com,2013-09-24 01:21:00,
2013-09-23 21:36:00,62.8,61.6,29.92,South,180,0.0,-999.0,96,-99.99,,,0.00,Acu-Link.com,2013-09-24 01:36:00,
2013-09-23 21:51:00,62.2,61.3,29.93,South,180,0.0,-999.0,97,-99.99,,,0.00,Acu-Link.com,2013-09-24 01:51:00,
2013-09-23 22:06:00,62.1,61.2,29.93,SSW,202,0.0,-999.0,97,-99.99,,,0.00,Acu-Link.com,2013-09-24 02:06:00,
2013-09-23 22:21:00,61.9,61.6,29.94,NW,315,0.0,-999.0,99,-99.99,,,0.00,Acu-Link.com,2013-09-24 02:21:00,
2013-09-23 22:36:00,61.5,61.2,29.94,NW,315,0.0,-999.0,99,-99.99,,,0.00,Acu-Link.com,2013-09-24 02:36:00,
2013-09-23 22:51:00,61.3,61.0,29.94,NW,315,0.0,-999.0,99,-99.99,,,0.00,Acu-Link.com,2013-09-24 02:51:00,
2013-09-23 23:07:00,61.2,60.9,29.94,NNW,337,0.0,-999.0,99,-99.99,,,0.00,Acu-Link.com,2013-09-24 03:07:00,
2013-09-23 23:22:00,60.6,60.3,29.95,NW,315,0.0,-999.0,99,-99.99,,,0.00,Acu-Link.com,2013-09-24 03:22:00,
2013-09-23 23:37:00,60.4,60.1,29.95,NNW,337,0.0,-999.0,99,-99.99,,,0.00,Acu-Link.com,2013-09-24 03:37:00,
2013-09-23 23:52:00,60.1,59.8,29.94,WNW,292,0.0,-999.0,99,-99.99,,,0.00,Acu-Link.com,2013-09-24 03:52:00,